| time (UTC) | temp F | wind direction | speed knots | gust knots | rain 1hr in | rain 24hr in | rain mn in | humidity % | barometer mb |
| 20260507135132 | 55 | 216 | 1.7 | 1.7 | 0.00 | 0.00 | 0.00 | 60 | 1019.8 |
| 20260507134628 | 55 | 225 | 2.6 | 2.6 | 0.00 | 0.00 | 0.00 | 61 | 1020.0 |
| 20260507134124 | 55 | 244 | 2.6 | 2.6 | 0.00 | 0.00 | 0.00 | 61 | 1019.8 |
| 20260507133620 | 54 | 224 | 0.9 | 0.9 | 0.00 | 0.00 | 0.00 | 61 | 1019.9 |
| 20260507133118 | 54 | 216 | 1.7 | 1.7 | 0.00 | 0.00 | 0.00 | 61 | 1019.9 |
| 20260507132615 | 54 | 226 | 1.7 | 1.7 | 0.00 | 0.00 | 0.00 | 62 | 1019.8 |
| 20260507132111 | 53 | 228 | 1.7 | 1.7 | 0.00 | 0.00 | 0.00 | 64 | 1019.7 |
| 20260507131608 | 53 | 203 | 2.6 | 2.6 | 0.00 | 0.00 | 0.00 | 64 | 1020.0 |
| 20260507131105 | 53 | 238 | 1.7 | 1.7 | 0.00 | 0.00 | 0.00 | 65 | 1020.0 |
| 20260507130602 | 52 | 220 | 1.7 | 2.6 | 0.00 | 0.00 | 0.00 | 68 | 1020.0 |
| 20260507130100 | 52 | 210 | 1.7 | 1.7 | 0.00 | 0.00 | 0.00 | 68 | 1019.9 |
| 20260507125559 | 51 | 231 | 0.9 | 0.9 | 0.00 | 0.00 | 0.00 | 69 | 1020.0 |
| 20260507125055 | 50 | 220 | 1.7 | 1.7 | 0.00 | 0.00 | 0.00 | 69 | 1019.9 |
| 20260507124552 | 50 | 240 | 0.9 | 0.9 | 0.00 | 0.00 | 0.00 | 71 | 1019.8 |
| 20260507124050 | 49 | 232 | 0.9 | 1.7 | 0.00 | 0.00 | 0.00 | 72 | 1019.9 |
| 20260507123547 | 49 | 216 | 0.9 | 0.9 | 0.00 | 0.00 | 0.00 | 73 | 1020.0 |
| 20260507123044 | 48 | 229 | 0.9 | 0.9 | 0.00 | 0.00 | 0.00 | 73 | 1019.9 |
| 20260507122539 | 48 | 237 | 1.7 | 1.7 | 0.00 | 0.00 | 0.00 | 74 | 1020.1 |
| 20260507122035 | 47 | 226 | 1.7 | 1.7 | 0.00 | 0.00 | 0.00 | 74 | 1019.8 |
| 20260507121531 | 47 | 232 | 0.9 | 1.7 | 0.00 | 0.00 | 0.00 | 76 | 1019.8 |
| 20260507121027 | 46 | 238 | 1.7 | 1.7 | 0.00 | 0.00 | 0.00 | 77 | 1019.7 |
| 20260507120524 | 46 | 240 | 0.9 | 0.9 | 0.00 | 0.00 | 0.00 | 79 | 1019.6 |
| 20260507120021 | 46 | 244 | 0.9 | 0.9 | 0.00 | 0.00 | 0.00 | 80 | 1019.5 |
| 20260507115517 | 46 | 241 | 0.0 | 0.0 | 0.00 | 0.00 | 0.00 | 81 | 1019.4 |
| 20260507115013 | 45 | 243 | 0.9 | 0.9 | 0.00 | 0.00 | 0.00 | 82 | 1019.7 |
| 20260507114509 | 45 | 249 | 0.9 | 0.9 | 0.00 | 0.00 | 0.00 | 85 | 1019.7 |
| 20260507114006 | 44 | 243 | 0.0 | 0.9 | 0.00 | 0.00 | 0.00 | 87 | 1019.5 |
| 20260507113503 | 44 | 241 | 0.0 | 0.0 | 0.00 | 0.00 | 0.00 | 88 | 1019.6 |
| 20260507113001 | 43 | 241 | 0.0 | 0.0 | 0.00 | 0.00 | 0.00 | 89 | 1019.6 |
| 20260507112458 | 44 | 241 | 0.0 | 0.0 | 0.00 | 0.00 | 0.00 | 90 | 1019.5 |
| 20260507111955 | 44 | 241 | 0.0 | 0.0 | 0.00 | 0.00 | 0.00 | 90 | 1019.6 |
| 20260507111452 | 44 | 241 | 0.0 | 0.0 | 0.00 | 0.00 | 0.00 | 90 | 1019.4 |
| 20260507110948 | 43 | 241 | 0.0 | 0.0 | 0.00 | 0.00 | 0.00 | 90 | 1019.6 |
| 20260507110444 | 43 | 240 | 0.0 | 0.0 | 0.00 | 0.00 | 0.00 | 90 | 1019.4 |
| 20260507105941 | 44 | 241 | 0.0 | 0.0 | 0.00 | 0.00 | 0.00 | 90 | 1019.6 |
| 20260507105438 | 44 | 240 | 0.0 | 0.0 | 0.00 | 0.00 | 0.00 | 90 | 1019.3 |
| 20260507104935 | 44 | 240 | 0.0 | 0.0 | 0.00 | 0.00 | 0.00 | 90 | 1019.3 |
| 20260507104432 | 43 | 240 | 0.0 | 0.0 | 0.00 | 0.00 | 0.00 | 91 | 1019.1 |
| 20260507103927 | 43 | 240 | 0.0 | 0.0 | 0.00 | 0.00 | 0.00 | 91 | 1019.1 |
| 20260507103424 | 44 | 240 | 0.0 | 0.0 | 0.00 | 0.00 | 0.00 | 91 | 1019.2 |
| 20260507102920 | 44 | 240 | 0.0 | 0.0 | 0.00 | 0.00 | 0.00 | 91 | 1019.1 |
| 20260507102417 | 44 | 240 | 0.0 | 0.0 | 0.00 | 0.00 | 0.00 | 91 | 1019.3 |
| 20260507101913 | 44 | 240 | 0.0 | 0.0 | 0.00 | 0.00 | 0.00 | 90 | 1019.3 |
| 20260507101409 | 44 | 240 | 0.0 | 0.0 | 0.00 | 0.00 | 0.00 | 90 | 1019.4 |
| 20260507100905 | 44 | 240 | 0.0 | 0.0 | 0.00 | 0.00 | 0.00 | 90 | 1019.3 |
| 20260507100403 | 44 | 241 | 0.0 | 0.0 | 0.00 | 0.00 | 0.00 | 91 | 1019.3 |
| 20260507095901 | 44 | 245 | 0.0 | 0.0 | 0.00 | 0.00 | 0.00 | 92 | 1019.2 |
| 20260507095357 | 44 | 246 | 0.0 | 0.9 | 0.00 | 0.00 | 0.00 | 92 | 1019.1 |
| 20260507094855 | 44 | 247 | 0.0 | 0.0 | 0.00 | 0.00 | 0.00 | 94 | 1019.3 |
| 20260507094351 | 43 | 250 | 0.9 | 0.9 | 0.00 | 0.00 | 0.00 | 95 | 1019.4 |
| 20260507093848 | 43 | 240 | 0.0 | 0.9 | 0.00 | 0.00 | 0.00 | 96 | 1019.4 |
| 20260507093346 | 43 | 234 | 0.0 | 0.0 | 0.00 | 0.00 | 0.00 | 96 | 1019.2 |
| 20260507092844 | 44 | 241 | 0.9 | 1.7 | 0.00 | 0.00 | 0.00 | 97 | 1019.3 |
| 20260507092340 | 44 | 247 | 0.9 | 0.9 | 0.00 | 0.00 | 0.00 | 97 | 1019.2 |
| 20260507091837 | 43 | 246 | 0.9 | 0.9 | 0.00 | 0.00 | 0.00 | 97 | 1019.2 |
| 20260507091333 | 44 | 240 | 0.0 | 0.0 | 0.00 | 0.00 | 0.00 | 97 | 1019.4 |
| 20260507090829 | 44 | 239 | 0.9 | 0.9 | 0.00 | 0.00 | 0.00 | 97 | 1019.5 |
| 20260507090325 | 44 | 242 | 0.9 | 0.9 | 0.00 | 0.00 | 0.00 | 97 | 1019.3 |
| 20260507085823 | 42 | 248 | 0.9 | 0.9 | 0.00 | 0.00 | 0.00 | 97 | 1019.3 |
| 20260507085319 | 42 | 236 | 0.0 | 0.0 | 0.00 | 0.00 | 0.00 | 97 | 1018.9 |
| 20260507084817 | 42 | 234 | 0.0 | 0.0 | 0.00 | 0.00 | 0.00 | 97 | 1018.9 |
| 20260507084313 | 41 | 245 | 0.0 | 0.0 | 0.00 | 0.00 | 0.00 | 97 | 1019.1 |
| 20260507083811 | 40 | 244 | 0.0 | 0.0 | 0.00 | 0.00 | 0.00 | 97 | 1019.0 |
| 20260507083307 | 40 | 240 | 0.0 | 0.0 | 0.00 | 0.00 | 0.00 | 96 | 1019.0 |
| 20260507082803 | 41 | 240 | 0.0 | 0.0 | 0.00 | 0.00 | 0.00 | 97 | 1019.0 |
| 20260507082259 | 40 | 241 | 0.0 | 0.0 | 0.00 | 0.00 | 0.00 | 97 | 1019.2 |
| 20260507081756 | 39 | 241 | 0.0 | 0.0 | 0.00 | 0.00 | 0.00 | 96 | 1019.2 |
| 20260507081252 | 39 | 240 | 0.0 | 0.0 | 0.00 | 0.00 | 0.00 | 96 | 1019.2 |
| 20260507080749 | 39 | 239 | 0.0 | 0.0 | 0.00 | 0.00 | 0.00 | 96 | 1019.2 |
| 20260507080245 | 39 | 240 | 0.0 | 0.0 | 0.00 | 0.00 | 0.00 | 96 | 1019.1 |
| 20260507075740 | 39 | 239 | 0.0 | 0.0 | 0.00 | 0.00 | 0.00 | 95 | 1019.2 |
| 20260507075237 | 39 | 240 | 0.0 | 0.0 | 0.00 | 0.00 | 0.00 | 95 | 1019.0 |
| 20260507074733 | 39 | 240 | 0.0 | 0.0 | 0.00 | 0.00 | 0.00 | 95 | 1019.2 |
| 20260507074232 | 39 | 240 | 0.0 | 0.0 | 0.00 | 0.00 | 0.00 | 95 | 1019.0 |
| 20260507073728 | 39 | 240 | 0.0 | 0.0 | 0.00 | 0.00 | 0.00 | 95 | 1019.4 |
| 20260507073224 | 39 | 240 | 0.0 | 0.0 | 0.00 | 0.00 | 0.00 | 95 | 1019.4 |
| 20260507072722 | 40 | 240 | 0.0 | 0.0 | 0.00 | 0.00 | 0.00 | 95 | 1019.3 |
| 20260507072219 | 40 | 240 | 0.0 | 0.0 | 0.00 | 0.00 | 0.00 | 95 | 1019.4 |
| 20260507071717 | 40 | 241 | 0.0 | 0.0 | 0.00 | 0.00 | 0.00 | 95 | 1019.6 |
| 20260507071213 | 40 | 240 | 0.0 | 0.0 | 0.00 | 0.00 | 0.00 | 95 | 1019.7 |
| 20260507070710 | 39 | 240 | 0.0 | 0.0 | 0.00 | 0.00 | 0.00 | 95 | 1019.9 |
| 20260507070207 | 40 | 240 | 0.0 | 0.0 | 0.00 | 0.00 | 0.00 | 95 | 1019.9 |
| 20260507065703 | 39 | 243 | 0.0 | 0.0 | 0.00 | 0.00 | 0.00 | 95 | 1020.0 |
| 20260507065200 | 40 | 243 | 0.0 | 0.0 | 0.00 | 0.00 | 0.00 | 95 | 1019.8 |
| 20260507064658 | 40 | 243 | 0.0 | 0.0 | 0.00 | 0.00 | 0.00 | 95 | 1020.0 |
| 20260507064156 | 40 | 244 | 0.0 | 0.0 | 0.00 | 0.00 | 0.00 | 95 | 1020.1 |
| 20260507063654 | 40 | 245 | 0.0 | 0.0 | 0.00 | 0.00 | 0.00 | 95 | 1019.9 |
| 20260507063150 | 40 | 240 | 0.0 | 0.0 | 0.00 | 0.00 | 0.00 | 95 | 1019.9 |
| 20260507062647 | 39 | 240 | 0.0 | 0.0 | 0.00 | 0.00 | 0.00 | 94 | 1019.9 |
| 20260507062145 | 40 | 240 | 0.0 | 0.0 | 0.00 | 0.00 | 0.00 | 94 | 1019.8 |
| 20260507061642 | 40 | 240 | 0.0 | 0.0 | 0.00 | 0.00 | 0.00 | 94 | 1019.9 |
| 20260507061140 | 40 | 240 | 0.0 | 0.0 | 0.00 | 0.00 | 0.00 | 94 | 1019.9 |
| 20260507060638 | 40 | 240 | 0.0 | 0.0 | 0.00 | 0.00 | 0.00 | 94 | 1020.1 |
| 20260507060134 | 40 | 240 | 0.0 | 0.0 | 0.00 | 0.00 | 0.00 | 94 | 1020.0 |
| 20260507055630 | 40 | 241 | 0.0 | 0.0 | 0.00 | 0.00 | 0.00 | 93 | 1020.1 |
| 20260507055126 | 40 | 240 | 0.0 | 0.0 | 0.00 | 0.00 | 0.00 | 93 | 1019.8 |
| 20260507054622 | 41 | 239 | 0.0 | 0.0 | 0.00 | 0.00 | 0.00 | 93 | 1019.9 |
| 20260507054119 | 41 | 240 | 0.0 | 0.0 | 0.00 | 0.00 | 0.00 | 93 | 1019.9 |
| 20260507053617 | 41 | 240 | 0.0 | 0.0 | 0.00 | 0.00 | 0.00 | 92 | 1020.0 |
| 20260507053115 | 41 | 241 | 0.0 | 0.0 | 0.00 | 0.00 | 0.00 | 93 | 1019.9 |
| 20260507052613 | 41 | 240 | 0.0 | 0.0 | 0.00 | 0.00 | 0.00 | 92 | 1019.9 |
| 20260507052109 | 41 | 240 | 0.0 | 0.0 | 0.00 | 0.00 | 0.00 | 92 | 1020.0 |
| 20260507051607 | 41 | 240 | 0.0 | 0.0 | 0.00 | 0.00 | 0.00 | 92 | 1019.9 |
| 20260507051103 | 41 | 240 | 0.0 | 0.0 | 0.00 | 0.00 | 0.00 | 92 | 1019.8 |
| 20260507050600 | 41 | 241 | 0.0 | 0.0 | 0.00 | 0.00 | 0.00 | 92 | 1020.0 |
| 20260507050057 | 42 | 241 | 0.0 | 0.0 | 0.00 | 0.00 | 0.00 | 92 | 1020.0 |
| 20260507045553 | 42 | 242 | 0.0 | 0.0 | 0.00 | 0.00 | 0.00 | 91 | 1019.8 |
| 20260507045051 | 42 | 242 | 0.0 | 0.0 | 0.00 | 0.00 | 0.00 | 92 | 1019.9 |
| 20260507044547 | 42 | 242 | 0.0 | 0.0 | 0.00 | 0.00 | 0.00 | 91 | 1019.7 |
| 20260507044044 | 42 | 242 | 0.0 | 0.0 | 0.00 | 0.00 | 0.00 | 91 | 1019.9 |
| 20260507043540 | 42 | 242 | 0.0 | 0.0 | 0.00 | 0.00 | 0.00 | 91 | 1019.7 |
| 20260507043038 | 43 | 242 | 0.0 | 0.0 | 0.00 | 0.00 | 0.00 | 91 | 1019.7 |
| 20260507042533 | 43 | 242 | 0.0 | 0.0 | 0.00 | 0.00 | 0.00 | 91 | 1019.9 |
| 20260507042029 | 43 | 242 | 0.0 | 0.0 | 0.00 | 0.00 | 0.00 | 90 | 1019.8 |
| 20260507041526 | 43 | 241 | 0.0 | 0.0 | 0.00 | 0.00 | 0.00 | 90 | 1019.8 |
| 20260507041023 | 43 | 241 | 0.0 | 0.0 | 0.00 | 0.00 | 0.00 | 89 | 1019.9 |
| 20260507040519 | 43 | 241 | 0.0 | 0.0 | 0.00 | 0.00 | 0.00 | 89 | 1019.6 |
| 20260507040015 | 43 | 241 | 0.0 | 0.0 | 0.00 | 0.00 | 0.00 | 88 | 1019.6 |
| 20260507035512 | 43 | 241 | 0.0 | 0.0 | 0.00 | 0.00 | 0.00 | 88 | 1019.8 |
| 20260507035008 | 43 | 241 | 0.0 | 0.0 | 0.00 | 0.00 | 0.00 | 87 | 1019.7 |
| 20260507034505 | 44 | 241 | 0.0 | 0.0 | 0.00 | 0.00 | 0.00 | 87 | 1019.8 |
| 20260507034003 | 44 | 240 | 0.0 | 0.0 | 0.00 | 0.00 | 0.00 | 86 | 1019.7 |
| 20260507033501 | 44 | 240 | 0.0 | 0.0 | 0.00 | 0.00 | 0.00 | 85 | 1019.8 |
| 20260507032958 | 44 | 241 | 0.0 | 0.0 | 0.00 | 0.00 | 0.00 | 84 | 1019.8 |
| 20260507032455 | 44 | 241 | 0.0 | 0.0 | 0.00 | 0.00 | 0.00 | 84 | 1019.8 |
| 20260507031950 | 44 | 241 | 0.0 | 0.0 | 0.00 | 0.00 | 0.00 | 84 | 1019.8 |
| 20260507031447 | 45 | 241 | 0.0 | 0.0 | 0.00 | 0.00 | 0.00 | 83 | 1019.8 |
| 20260507030944 | 45 | 241 | 0.0 | 0.0 | 0.00 | 0.00 | 0.00 | 83 | 1019.8 |
| 20260507030441 | 45 | 241 | 0.0 | 0.0 | 0.00 | 0.00 | 0.00 | 82 | 1019.8 |
| 20260507025938 | 45 | 241 | 0.0 | 0.0 | 0.00 | 0.00 | 0.00 | 81 | 1019.9 |
| 20260507025436 | 46 | 241 | 0.0 | 0.0 | 0.00 | 0.00 | 0.00 | 82 | 1019.7 |
| 20260507024933 | 46 | 241 | 0.0 | 0.0 | 0.00 | 0.00 | 0.00 | 82 | 1019.7 |
| 20260507024431 | 46 | 241 | 0.0 | 0.0 | 0.00 | 0.00 | 0.00 | 80 | 1019.6 |
| 20260507023926 | 46 | 241 | 0.0 | 0.0 | 0.00 | 0.00 | 0.00 | 78 | 1019.6 |
| 20260507023423 | 47 | 241 | 0.0 | 0.9 | 0.00 | 0.00 | 0.00 | 78 | 1019.8 |
| 20260507022920 | 47 | 240 | 0.0 | 0.9 | 0.00 | 0.00 | 0.00 | 77 | 1019.5 |
| 20260507022417 | 47 | 240 | 0.0 | 0.0 | 0.00 | 0.00 | 0.00 | 75 | 1019.5 |
| 20260507021913 | 47 | 240 | 0.0 | 0.0 | 0.00 | 0.00 | 0.00 | 74 | 1019.4 |
| 20260507021408 | 48 | 240 | 0.0 | 0.0 | 0.00 | 0.00 | 0.00 | 70 | 1019.3 |
| 20260507020906 | 48 | 240 | 0.0 | 0.0 | 0.00 | 0.00 | 0.00 | 69 | 1019.2 |
| 20260507020403 | 48 | 240 | 0.0 | 0.0 | 0.00 | 0.00 | 0.00 | 70 | 1019.1 |
| 20260507015900 | 49 | 240 | 0.0 | 0.0 | 0.00 | 0.00 | 0.00 | 69 | 1019.1 |
| 20260507015358 | 49 | 240 | 0.0 | 0.0 | 0.00 | 0.00 | 0.00 | 67 | 1019.0 |
| 20260507014854 | 50 | 240 | 0.0 | 0.0 | 0.00 | 0.00 | 0.00 | 61 | 1018.9 |
| 20260507014350 | 51 | 240 | 0.0 | 0.0 | 0.00 | 0.00 | 0.00 | 60 | 1019.1 |
| 20260507013847 | 51 | 240 | 0.0 | 0.0 | 0.00 | 0.00 | 0.00 | 58 | 1018.8 |
| 20260507013344 | 52 | 240 | 0.0 | 0.0 | 0.00 | 0.00 | 0.00 | 58 | 1018.6 |
| 20260507012842 | 52 | 240 | 0.0 | 0.0 | 0.00 | 0.00 | 0.00 | 57 | 1018.7 |
| 20260507012338 | 52 | 240 | 0.0 | 0.0 | 0.00 | 0.00 | 0.00 | 57 | 1018.9 |
| 20260507011835 | 53 | 239 | 0.0 | 0.0 | 0.00 | 0.00 | 0.00 | 56 | 1018.9 |
| 20260507011332 | 53 | 239 | 0.0 | 0.0 | 0.00 | 0.00 | 0.00 | 55 | 1018.7 |
| 20260507010832 | 54 | 239 | 0.0 | 0.0 | 0.00 | 0.00 | 0.00 | 54 | 1018.7 |
| 20260507010328 | 55 | 235 | 0.0 | 0.0 | 0.00 | 0.00 | 0.00 | 53 | 1018.7 |
| 20260507005825 | 55 | 219 | 0.0 | 0.0 | 0.00 | 0.00 | 0.00 | 53 | 1018.7 |
| 20260507005321 | 55 | 228 | 0.0 | 0.9 | 0.00 | 0.00 | 0.00 | 52 | 1018.6 |
| 20260507004813 | 56 | 236 | 0.0 | 0.0 | 0.00 | 0.00 | 0.00 | 52 | 1018.7 |
| 20260507004310 | 56 | 253 | 0.0 | 0.0 | 0.00 | 0.00 | 0.00 | 51 | 1018.5 |
| 20260507003807 | 56 | 5 | 0.9 | 0.9 | 0.00 | 0.00 | 0.00 | 50 | 1018.3 |
| 20260507003302 | 56 | 239 | 0.0 | 0.9 | 0.00 | 0.00 | 0.00 | 51 | 1018.2 |
| 20260507002758 | 57 | 243 | 0.0 | 0.9 | 0.00 | 0.00 | 0.00 | 50 | 1018.4 |
| 20260507002254 | 57 | 250 | 0.9 | 0.9 | 0.00 | 0.00 | 0.00 | 48 | 1018.2 |
| 20260507001751 | 57 | 282 | 0.9 | 0.9 | 0.00 | 0.00 | 0.00 | 49 | 1017.9 |
| 20260507001248 | 57 | 280 | 0.9 | 0.9 | 0.00 | 0.00 | 0.00 | 48 | 1017.8 |
| 20260507000744 | 58 | 311 | 0.0 | 0.0 | 0.00 | 0.00 | 0.00 | 50 | 1017.7 |
| 20260507000240 | 58 | 197 | 0.9 | 0.9 | 0.00 | 0.00 | 0.00 | 49 | 1017.7 |
| 20260506235737 | 58 | 42 | 2.6 | 4.3 | 0.00 | 0.00 | 0.00 | 49 | 1017.8 |
| 20260506235232 | 59 | 288 | 0.0 | 0.9 | 0.00 | 0.00 | 0.00 | 49 | 1017.9 |
| 20260506234730 | 59 | 233 | 0.0 | 0.0 | 0.00 | 0.00 | 0.00 | 49 | 1017.9 |
| 20260506234227 | 59 | 60 | 3.5 | 6.1 | 0.00 | 0.00 | 0.00 | 47 | 1017.9 |
| 20260506233724 | 59 | 27 | 2.6 | 5.2 | 0.00 | 0.00 | 0.00 | 46 | 1017.6 |
| 20260506233221 | 59 | 241 | 0.9 | 0.9 | 0.00 | 0.00 | 0.00 | 48 | 1017.6 |
| 20260506232717 | 59 | 83 | 2.6 | 4.3 | 0.00 | 0.00 | 0.00 | 47 | 1017.4 |
| 20260506232212 | 60 | 69 | 4.3 | 7.0 | 0.00 | 0.00 | 0.00 | 46 | 1017.8 |
| 20260506231710 | 60 | 228 | 0.0 | 0.9 | 0.00 | 0.00 | 0.00 | 47 | 1017.7 |
| 20260506231209 | 60 | 247 | 0.9 | 0.9 | 0.00 | 0.00 | 0.00 | 49 | 1017.6 |
| 20260506230704 | 60 | 97 | 1.7 | 2.6 | 0.00 | 0.00 | 0.00 | 48 | 1017.5 |
| 20260506230202 | 59 | 169 | 0.9 | 1.7 | 0.00 | 0.00 | 0.00 | 48 | 1017.7 |
| 20260506225658 | 59 | 35 | 5.2 | 7.8 | 0.00 | 0.00 | 0.00 | 47 | 1017.3 |
| 20260506225155 | 60 | 43 | 3.5 | 5.2 | 0.00 | 0.00 | 0.00 | 47 | 1017.5 |
| 20260506224651 | 61 | 61 | 3.5 | 5.2 | 0.00 | 0.00 | 0.00 | 46 | 1017.7 |
| 20260506224148 | 61 | 33 | 3.5 | 5.2 | 0.00 | 0.00 | 0.00 | 46 | 1017.7 |
| 20260506223645 | 60 | 240 | 0.0 | 0.9 | 0.00 | 0.00 | 0.00 | 50 | 1017.8 |
| 20260506223140 | 60 | 61 | 1.7 | 2.6 | 0.00 | 0.00 | 0.00 | 48 | 1017.6 |
| 20260506222638 | 60 | 48 | 1.7 | 1.7 | 0.00 | 0.00 | 0.00 | 47 | 1017.7 |
| 20260506222133 | 61 | 27 | 5.2 | 6.1 | 0.00 | 0.00 | 0.00 | 46 | 1017.7 |
| 20260506221632 | 60 | 0 | 2.6 | 2.6 | 0.00 | 0.00 | 0.00 | 46 | 1017.7 |
| 20260506221130 | 61 | 62 | 4.3 | 6.1 | 0.00 | 0.00 | 0.00 | 46 | 1017.7 |
| 20260506220626 | 60 | 33 | 1.7 | 2.6 | 0.00 | 0.00 | 0.00 | 47 | 1017.8 |
| 20260506220121 | 60 | 36 | 1.7 | 4.3 | 0.00 | 0.00 | 0.00 | 47 | 1017.6 |
| 20260506215618 | 60 | 57 | 1.7 | 2.6 | 0.00 | 0.00 | 0.00 | 47 | 1017.7 |
| 20260506215113 | 60 | 77 | 3.5 | 4.3 | 0.00 | 0.00 | 0.00 | 46 | 1017.8 |
| 20260506214611 | 61 | 72 | 4.3 | 6.1 | 0.00 | 0.00 | 0.00 | 45 | 1017.5 |
| 20260506214108 | 61 | 164 | 0.9 | 0.9 | 0.00 | 0.00 | 0.00 | 47 | 1017.8 |
| 20260506213606 | 60 | 78 | 2.6 | 2.6 | 0.00 | 0.00 | 0.00 | 45 | 1017.8 |
| 20260506213103 | 61 | 354 | 0.9 | 1.7 | 0.00 | 0.00 | 0.00 | 45 | 1017.8 |
| 20260506212600 | 60 | 358 | 2.6 | 2.6 | 0.00 | 0.00 | 0.00 | 48 | 1017.9 |
| 20260506212054 | 61 | 31 | 2.6 | 5.2 | 0.00 | 0.00 | 0.00 | 45 | 1018.1 |
| 20260506211551 | 61 | 36 | 1.7 | 1.7 | 0.00 | 0.00 | 0.00 | 47 | 1018.1 |
| 20260506211048 | 61 | 34 | 2.6 | 2.6 | 0.00 | 0.00 | 0.00 | 47 | 1017.9 |
| 20260506210544 | 61 | 91 | 3.5 | 4.3 | 0.00 | 0.00 | 0.00 | 45 | 1017.8 |
| 20260506210041 | 62 | 77 | 4.3 | 6.1 | 0.00 | 0.00 | 0.00 | 44 | 1017.8 |
| 20260506205538 | 61 | 282 | 0.0 | 0.9 | 0.00 | 0.00 | 0.00 | 48 | 1018.1 |
| 20260506205033 | 61 | 129 | 1.7 | 2.6 | 0.00 | 0.00 | 0.00 | 47 | 1017.8 |
| 20260506204531 | 62 | 36 | 4.3 | 7.8 | 0.00 | 0.00 | 0.00 | 47 | 1018.1 |
| 20260506204028 | 62 | 182 | 0.9 | 1.7 | 0.00 | 0.00 | 0.00 | 48 | 1018.3 |
| 20260506203527 | 61 | 286 | 1.7 | 4.3 | 0.00 | 0.00 | 0.00 | 49 | 1017.9 |
| 20260506203022 | 60 | 70 | 4.3 | 7.0 | 0.00 | 0.00 | 0.00 | 49 | 1018.2 |
| 20260506202520 | 60 | 89 | 4.3 | 5.2 | 0.00 | 0.00 | 0.00 | 47 | 1018.2 |
| 20260506202016 | 60 | 62 | 2.6 | 4.3 | 0.00 | 0.00 | 0.00 | 46 | 1018.5 |
| 20260506201514 | 60 | 60 | 2.6 | 6.1 | 0.00 | 0.00 | 0.00 | 48 | 1018.3 |
| 20260506201010 | 60 | 86 | 2.6 | 6.1 | 0.00 | 0.00 | 0.00 | 48 | 1018.6 |
| 20260506200507 | 60 | 74 | 3.5 | 5.2 | 0.00 | 0.00 | 0.00 | 47 | 1018.5 |
| 20260506200004 | 60 | 240 | 0.9 | 1.7 | 0.00 | 0.00 | 0.00 | 49 | 1018.7 |
| 20260506195501 | 60 | 125 | 2.6 | 4.3 | 0.00 | 0.00 | 0.00 | 51 | 1018.7 |
| 20260506194956 | 61 | 55 | 4.3 | 6.1 | 0.00 | 0.00 | 0.00 | 48 | 1018.6 |
| 20260506194454 | 61 | 59 | 0.9 | 1.7 | 0.00 | 0.00 | 0.00 | 51 | 1018.9 |
| 20260506193950 | 60 | 79 | 0.9 | 1.7 | 0.00 | 0.00 | 0.00 | 45 | 1018.7 |
| 20260506193448 | 59 | 29 | 0.9 | 1.7 | 0.00 | 0.00 | 0.00 | 50 | 1019.0 |
| 20260506192944 | 59 | 348 | 1.7 | 1.7 | 0.00 | 0.00 | 0.00 | 50 | 1018.8 |
| 20260506192442 | 61 | 275 | 0.9 | 1.7 | 0.00 | 0.00 | 0.00 | 48 | 1019.1 |
| 20260506191938 | 60 | 197 | 0.9 | 1.7 | 0.00 | 0.00 | 0.00 | 48 | 1019.0 |
| 20260506191435 | 61 | 81 | 2.6 | 2.6 | 0.00 | 0.00 | 0.00 | 46 | 1019.3 |
| 20260506190931 | 61 | 14 | 4.3 | 6.1 | 0.00 | 0.00 | 0.00 | 47 | 1019.3 |
| 20260506190428 | 60 | 93 | 1.7 | 2.6 | 0.00 | 0.00 | 0.00 | 50 | 1019.4 |
| 20260506185925 | 61 | 43 | 0.9 | 1.7 | 0.00 | 0.00 | 0.00 | 49 | 1019.5 |
| 20260506185422 | 62 | 256 | 1.7 | 1.7 | 0.00 | 0.00 | 0.00 | 49 | 1019.2 |
| 20260506184919 | 62 | 255 | 0.9 | 1.7 | 0.00 | 0.00 | 0.00 | 48 | 1019.4 |
| 20260506184416 | 60 | 236 | 0.9 | 0.9 | 0.00 | 0.00 | 0.00 | 50 | 1019.4 |
| 20260506183914 | 61 | 58 | 0.0 | 0.9 | 0.00 | 0.00 | 0.00 | 50 | 1019.6 |
| 20260506183408 | 61 | 26 | 0.9 | 0.9 | 0.00 | 0.00 | 0.00 | 47 | 1019.5 |
| 20260506182906 | 61 | 108 | 1.7 | 2.6 | 0.00 | 0.00 | 0.00 | 49 | 1019.4 |
| 20260506182403 | 60 | 265 | 2.6 | 4.3 | 0.00 | 0.00 | 0.00 | 50 | 1019.5 |
| 20260506181900 | 59 | 241 | 1.7 | 2.6 | 0.00 | 0.00 | 0.00 | 53 | 1019.5 |
| 20260506181358 | 60 | 76 | 4.3 | 6.1 | 0.00 | 0.00 | 0.00 | 49 | 1019.4 |
| 20260506180855 | 59 | 23 | 2.6 | 2.6 | 0.00 | 0.00 | 0.00 | 54 | 1019.6 |
| 20260506180351 | 59 | 111 | 2.6 | 4.3 | 0.00 | 0.00 | 0.00 | 50 | 1019.7 |
| 20260506175848 | 59 | 246 | 1.7 | 1.7 | 0.00 | 0.00 | 0.00 | 52 | 1019.9 |
| 20260506175344 | 58 | 207 | 2.6 | 4.3 | 0.00 | 0.00 | 0.00 | 53 | 1019.8 |
| 20260506174841 | 59 | 176 | 0.0 | 0.9 | 0.00 | 0.00 | 0.00 | 54 | 1019.9 |
| 20260506174339 | 59 | 83 | 3.5 | 4.3 | 0.00 | 0.00 | 0.00 | 53 | 1020.1 |
| 20260506173837 | 59 | 188 | 1.7 | 2.6 | 0.00 | 0.00 | 0.00 | 53 | 1019.9 |
| 20260506173333 | 59 | 78 | 3.5 | 5.2 | 0.00 | 0.00 | 0.00 | 53 | 1020.0 |
| 20260506172830 | 60 | 32 | 2.6 | 2.6 | 0.00 | 0.00 | 0.00 | 55 | 1019.8 |
| 20260506172327 | 57 | 63 | 2.6 | 2.6 | 0.00 | 0.00 | 0.00 | 53 | 1019.9 |
| 20260506171824 | 57 | 41 | 3.5 | 4.3 | 0.00 | 0.00 | 0.00 | 55 | 1019.9 |
| 20260506171321 | 57 | 92 | 6.1 | 8.7 | 0.00 | 0.00 | 0.00 | 53 | 1020.0 |
| 20260506170819 | 57 | 79 | 6.1 | 7.8 | 0.00 | 0.00 | 0.00 | 52 | 1020.0 |
| 20260506170315 | 58 | 240 | 0.9 | 0.9 | 0.00 | 0.00 | 0.00 | 57 | 1020.1 |
| 20260506165814 | 58 | 344 | 0.9 | 1.7 | 0.00 | 0.00 | 0.00 | 59 | 1019.9 |
| 20260506165311 | 57 | 210 | 0.9 | 1.7 | 0.00 | 0.00 | 0.00 | 57 | 1020.0 |
| 20260506164808 | 57 | 72 | 2.6 | 4.3 | 0.00 | 0.00 | 0.00 | 57 | 1019.8 |
| 20260506164304 | 58 | 139 | 0.9 | 1.7 | 0.00 | 0.00 | 0.00 | 59 | 1019.5 |
| 20260506163801 | 57 | 54 | 0.0 | 0.9 | 0.00 | 0.00 | 0.00 | 64 | 1019.3 |
| 20260506163256 | 56 | 85 | 2.6 | 2.6 | 0.00 | 0.00 | 0.00 | 62 | 1019.4 |
| 20260506162752 | 55 | 58 | 4.3 | 5.2 | 0.00 | 0.00 | 0.00 | 61 | 1019.3 |
| 20260506162250 | 55 | 2 | 2.6 | 6.1 | 0.00 | 0.00 | 0.00 | 63 | 1019.2 |
| 20260506161747 | 55 | 64 | 4.3 | 5.2 | 0.00 | 0.00 | 0.00 | 63 | 1019.2 |
| 20260506161245 | 55 | 241 | 0.9 | 1.7 | 0.00 | 0.00 | 0.00 | 66 | 1019.2 |
| 20260506160742 | 54 | 62 | 3.5 | 5.2 | 0.00 | 0.00 | 0.00 | 68 | 1019.0 |
| 20260506160238 | 55 | 55 | 1.7 | 2.6 | 0.00 | 0.00 | 0.00 | 66 | 1019.4 |
| 20260506155737 | 55 | 224 | 0.0 | 0.0 | 0.00 | 0.00 | 0.00 | 69 | 1019.2 |
| 20260506155233 | 55 | 87 | 1.7 | 2.6 | 0.00 | 0.00 | 0.00 | 65 | 1019.3 |
| 20260506153341 | 54 | 43 | 0.0 | 0.9 | 0.00 | 0.00 | 0.00 | 66 | 1019.1 |
| 20260506152837 | 54 | 29 | 3.5 | 6.1 | 0.00 | 0.00 | 0.00 | 67 | 1018.9 |
| 20260506152335 | 54 | 82 | 2.6 | 2.6 | 0.00 | 0.00 | 0.00 | 68 | 1018.7 |
| 20260506151833 | 53 | 14 | 1.7 | 1.7 | 0.00 | 0.00 | 0.00 | 71 | 1018.9 |
| 20260506151330 | 53 | 72 | 2.6 | 6.1 | 0.00 | 0.00 | 0.00 | 71 | 1018.8 |
| 20260506150827 | 53 | 70 | 1.7 | 2.6 | 0.00 | 0.00 | 0.00 | 71 | 1019.0 |
| 20260506150324 | 53 | 31 | 1.7 | 2.6 | 0.00 | 0.00 | 0.00 | 70 | 1019.0 |
| 20260506145820 | 53 | 7 | 0.9 | 1.7 | 0.00 | 0.00 | 0.00 | 73 | 1019.0 |
| 20260506145317 | 53 | 223 | 0.9 | 0.9 | 0.00 | 0.00 | 0.00 | 72 | 1019.0 |
| 20260506144815 | 52 | 229 | 0.0 | 0.0 | 0.00 | 0.00 | 0.00 | 72 | 1019.2 |
| 20260506144311 | 52 | 55 | 0.9 | 0.9 | 0.00 | 0.00 | 0.00 | 71 | 1018.9 |
| 20260506143809 | 52 | 236 | 0.0 | 0.0 | 0.00 | 0.00 | 0.00 | 74 | 1019.0 |
| 20260506143306 | 52 | 243 | 0.0 | 0.0 | 0.00 | 0.00 | 0.00 | 77 | 1018.9 |
| 20260506142804 | 51 | 87 | 0.9 | 0.9 | 0.00 | 0.00 | 0.00 | 76 | 1019.0 |
| 20260506142305 | 51 | 245 | 0.0 | 0.9 | 0.00 | 0.00 | 0.00 | 76 | 1018.9 |
| 20260506141800 | 52 | 336 | 0.9 | 1.7 | 0.00 | 0.00 | 0.00 | 78 | 1019.0 |
| 20260506141258 | 51 | 354 | 0.0 | 0.9 | 0.00 | 0.00 | 0.00 | 78 | 1019.0 |
| 20260506140755 | 51 | 43 | 0.9 | 0.9 | 0.00 | 0.00 | 0.00 | 78 | 1018.9 |
| 20260506140252 | 50 | 84 | 2.6 | 2.6 | 0.00 | 0.00 | 0.00 | 78 | 1018.7 |
| 20260506135749 | 50 | 80 | 0.9 | 1.7 | 0.00 | 0.00 | 0.00 | 79 | 1018.6 |